Погода в Паратунке

Россия / Камчатский край     52°57′44″N   158°15′15″E
темп.,
°C
ветер,
м/с
пор.,
м/с
влажн.,
%
обл.,
%
осадки,
мм/ч
давл.,
гПа
погр.,
м
9 марта, вт
вт900:00−20з44830 0.0 100920
03:00−20з33830 0.0 100920
06:00−20з33830 0.0 101120
09:00−18з33810 0.0 101222
12:00−11з27670 0.0 1013863
15:00−8з596471 0.1 10131576
18:00−9зюз337786 0.1 101595
21:00−14з228438 0.0 101721
10 марта, ср
ср1000:00−15зсз228241 0.0 101820
03:00−14зсз118578 0.0 101820
06:00−13ссз119088 0.1 101920
09:00−12сз118796 0.1 101924
12:00−7всв117495 0.1 1019237
15:00−6в218890 0.0 1018224
18:00−6в119291 0.0 101884
21:00−9зюз0092100 0.0 101821
11 марта, чт
чт1100:00−9сз1187100 0.0 101821
03:00−10ссз1184100 0.0 101621
06:00−9ссз1187100 0.0 101621
09:00−7с2296100 0.3 1013100
12:00−2вюв81299100 2.0 1010859
15:00−2в131699100 4.6 1004968
18:00−2св51096100 13.9 1000799
21:00−4всв2498100 3.6 997194
12 марта, пт
пт1200:00−4сз3396100 5.2 99661
03:00−8зсз3381100 0.0 99626
06:00−9з448187 0.0 99822
09:00−9з44810 0.0 99940
12:00−4з5107411 0.0 1000709
15:00−6з6117392 0.0 1000623
18:00−8зюз7157596 0.0 1001713
21:00−11з61178100 0.0 1003285
13 марта, сб
сб1300:00−12з5882100 0.0 1004160
03:00−14з8237493 0.0 1004561
06:00−16з447747 0.0 100427
09:00−16з44800 0.0 100543
12:00−9зсз1016652 0.0 10041684
15:00−7зсз14176578 0.1 10031903
18:00−8зсз11166757 0.1 1003928
21:00−14з44800 0.0 100527